Flag for United Kingdom Weather past 2 weeks in Durham, England, United Kingdom

Now
61 °F

Passing clouds.


Feels Like: 61 °F
Forecast: 46 / 56 °F
Wind: 8 mph from Southwest

Location: Newcastle

Current Time: Oct 23, 2014 at 3:01:29 PM

Latest Report: Oct 23, 2014 at 2:20 PM


Visibility: N/A

Pressure: 29.83 "Hg

Humidity: 72%

Dew point: 52 °F

Location of DurhamLocation

Historic Weather in Durham — Graph

°F

Durham temperature yesterday

Maximum temperature yesterday: 54 °F (at 1:20 PM)
Minimum temperature yesterday: 43 °F (at 12:20 AM)
Average temperature yesterday: 49 °F

Past Weeks' High & Low Weather Summary

 TemperatureHumidityPressure
High68 °F (Oct 18, 12:50 PM)100% (Oct 8, 7:50 PM)30.12 "Hg (Oct 8, 7:50 PM)
Low37 °F (Oct 11, 5:50 AM)50% (Oct 21, 2:20 PM)29.12 "Hg (Oct 8, 8:20 PM)
Average52 °F84%29.67 "Hg
* Reported Oct 8 1:20 PM — Oct 23 1:50 PM, Durham, Weather by CustomWeather, © 2014

Note: Actual official high and low records may vary slightly from our data, if they occured in-between our weather recording intervals... More about our weather records

Advertising

Durham weather history for previous 24 hours

 ConditionsComfort  
Time TempWeatherWind HumidityBarometerVisibility
1:50 PM
Oct 23
61 °FPassing clouds.9 mph72%29.83 "HgN/A
1:20 PM59 °FPassing clouds.12 mph72%29.83 "HgN/A
12:50 PM61 °FPassing clouds.14 mph68%29.83 "HgN/A
12:20 PM61 °FPassing clouds.15 mph63%29.86 "HgN/A
11:50 AM59 °FPassing clouds.14 mph72%29.86 "HgN/A
11:20 AM59 °FScattered clouds.13 mph72%29.86 "HgN/A
10:50 AM57 °FScattered clouds.12 mph77%29.86 "HgN/A
10:20 AM57 °FPartly sunny.12 mph77%29.89 "HgN/A
9:50 AM57 °FPartly sunny.5 mph77%29.89 "HgN/A
9:20 AM55 °FScattered clouds.5 mph77%29.89 "HgN/A
8:50 AM55 °FPassing clouds.3 mph77%29.89 "HgN/A
8:20 AM55 °FPassing clouds.6 mph77%29.89 "HgN/A
7:50 AM54 °FPassing clouds.7 mph82%29.89 "HgN/A
7:20 AM54 °FPassing clouds.8 mph77%29.86 "HgN/A
6:50 AM54 °FPassing clouds.10 mph77%29.89 "HgN/A
6:20 AM54 °FPassing clouds.9 mph77%29.89 "HgN/A
5:50 AM54 °FPassing clouds.6 mph72%29.89 "HgN/A
5:20 AM54 °FPassing clouds.10 mph72%29.89 "HgN/A
4:50 AM54 °FPassing clouds.10 mph72%29.89 "HgN/A
3:50 AM54 °FPassing clouds.13 mph72%29.89 "HgN/A
2:50 AM54 °FPassing clouds.16 mph72%29.92 "HgN/A
1:50 AM54 °FPassing clouds.9 mph72%29.95 "HgN/A
1:20 AM54 °FPassing clouds.10 mph72%29.95 "HgN/A
12:50 AM54 °FPassing clouds.13 mph72%29.95 "HgN/A
12:20 AM54 °FPassing clouds.15 mph72%29.95 "HgN/A
11:20 PM
Oct 22
54 °FPassing clouds.14 mph72%29.98 "HgN/A
9:50 PM54 °FPassing clouds.7 mph72%29.98 "HgN/A
9:20 PM54 °FPassing clouds.15 mph77%29.98 "HgN/A
8:50 PM54 °FPassing clouds.10 mph77%29.98 "HgN/A
8:20 PM54 °FPassing clouds.9 mph77%29.98 "HgN/A
7:50 PM54 °FPassing clouds.16 mph77%30.01 "HgN/A
6:50 PM54 °FScattered clouds.15 mph77%29.98 "HgN/A
6:20 PM52 °FPartly sunny.14 mph88%30.01 "HgN/A
5:50 PM54 °FPartly sunny.15 mph82%30.01 "HgN/A
5:20 PM52 °FLight rain. Partly sunny.9 mph88%30.04 "HgN/A
4:50 PM52 °FLight rain. Partly sunny.13 mph82%30.04 "HgN/A
4:20 PM52 °FSprinkles. Passing clouds.15 mph82%30.01 "HgN/A
3:20 PM52 °FPartly sunny.17 mph82%30.04 "HgN/A
Weather by CustomWeather, © 2014

See weather overviewHow to use our weather pages